Location: Boda
(47.1872°N, 9.5454°E)
Time: 09:45:23
(UTC+00:00)

NOSS 3-2 (A) - Pass Details

Date: 14 May 2021
Orbit: 776 x 1432 km, 63.4° (Epoch: 14 June)

Event Time Altitude Azimuth Distance (km) Brightness Sun altitude
Exits shadow 02:37:59 - 187° (S) 2,814 5.5 -10.3°
Reaches altitude 10° 02:39:08 10° 183° (S) 2,409 5.2 -10.2°
Maximum altitude 02:44:12 38° 116° (ESE) 1,317 4.4 -9.6°
Drops below altitude 10° 02:49:56 10° 51° (NE) 2,736 7.6 -8.8°
Sets 02:52:52 0° 44° (NE) 3,795 8.9 -8.4°
